DLH747 EDDH-EKCH

Flight info

Callsign DLH747
Flight time 0h 48m
Altitude 28000
Route ELSOB3G/33 ELSOB Y348 OMWEG DCT BADOS DCT ATTUS P992 BAVTA/N0451F270 N873 INTET T55 TESPI
Aircraft A320/M-SDE3FGHIRWY/LB1

Departure

Time 2026-05-04 19:31
Airport Hamburg Helmut Schmidt Airport (EDDH)

Arrival

Time 2026-05-04 20:19
Airport Copenhagen Kastrup Airport (EKCH)
Time Latitude Longitude Altitude Speed Heading
2026-05-04 19:01 53.62991 10.00362 51 ft 0 kts 110°
2026-05-04 19:21 53.62991 10.00361 51 ft 1 kts 110°
2026-05-04 19:21 53.63000 10.00324 49 ft 4 kts 110°
2026-05-04 19:22 53.63009 10.00281 49 ft 4 kts 111°
2026-05-04 19:22 53.63019 10.00239 48 ft 4 kts 115°
2026-05-04 19:22 53.63030 10.00205 48 ft 4 kts 125°
2026-05-04 19:22 53.63049 10.00180 50 ft 4 kts 178°
2026-05-04 19:23 53.63073 10.00189 51 ft 4 kts 210°
2026-05-04 19:23 53.63080 10.00196 51 ft 1 kts 212°
2026-05-04 19:25 53.63078 10.00194 51 ft 1 kts 212°
2026-05-04 19:25 53.63073 10.00189 51 ft 1 kts 212°
2026-05-04 19:25 53.63069 10.00184 51 ft 1 kts 212°
2026-05-04 19:25 53.63060 10.00174 49 ft 2 kts 212°
2026-05-04 19:26 53.63048 10.00162 48 ft 2 kts 212°
2026-05-04 19:26 53.63042 10.00155 49 ft 0 kts 212°
2026-05-04 19:29 53.62990 10.00104 50 ft 15 kts 212°
2026-05-04 19:29 53.62934 10.00022 51 ft 10 kts 236°
2026-05-04 19:29 53.62898 9.99927 52 ft 9 kts 240°
2026-05-04 19:29 53.62893 9.99912 52 ft 0 kts 242°
2026-05-04 19:30 53.62880 9.99867 53 ft 14 kts 243°
2026-05-04 19:30 53.62885 9.99728 53 ft 5 kts 325°
2026-05-04 19:30 53.62959 9.99655 51 ft 51 kts 332°
2026-05-04 19:31 53.63561 9.99142 52 ft 137 kts 333°
2026-05-04 19:31 53.64569 9.98271 394 ft 171 kts 333°
2026-05-04 19:31 53.65631 9.97349 1224 ft 176 kts 332°
2026-05-04 19:31 53.66806 9.96369 1691 ft 201 kts 332°
2026-05-04 19:32 53.68119 9.95254 2387 ft 219 kts 332°
2026-05-04 19:32 53.69481 9.94084 3560 ft 220 kts 332°
2026-05-04 19:32 53.70803 9.92727 4479 ft 227 kts 314°
2026-05-04 19:32 53.71519 9.90387 4816 ft 238 kts 275°
2026-05-04 19:33 53.71312 9.87508 4944 ft 259 kts 254°
2026-05-04 19:33 53.70768 9.84575 4974 ft 263 kts 249°
2026-05-04 19:33 53.70136 9.81677 4976 ft 263 kts 248°
2026-05-04 19:33 53.69490 9.78776 5022 ft 267 kts 249°
2026-05-04 19:34 53.68849 9.75825 6147 ft 267 kts 249°
2026-05-04 19:34 53.68225 9.72851 7435 ft 271 kts 250°
2026-05-04 19:34 53.67617 9.69819 8611 ft 276 kts 253°
2026-05-04 19:34 53.67359 9.66557 9476 ft 285 kts 270°
2026-05-04 19:35 53.67720 9.63262 9786 ft 287 kts 289°
2026-05-04 19:35 53.68702 9.60303 10068 ft 300 kts 308°
2026-05-04 19:35 53.70344 9.57902 10592 ft 328 kts 330°
2026-05-04 19:35 53.72512 9.56278 11120 ft 351 kts 338°
2026-05-04 19:36 53.74823 9.54740 11959 ft 361 kts 338°
2026-05-04 19:36 53.77183 9.53217 12911 ft 366 kts 339°
2026-05-04 19:36 53.79584 9.51682 13851 ft 371 kts 339°
2026-05-04 19:36 53.82020 9.50120 14758 ft 376 kts 339°
2026-05-04 19:37 53.84446 9.48547 15617 ft 381 kts 338°
2026-05-04 19:37 53.86940 9.46917 16455 ft 386 kts 338°
2026-05-04 19:37 53.89459 9.45256 17259 ft 390 kts 338°
2026-05-04 19:37 53.92001 9.43570 18017 ft 395 kts 338°
2026-05-04 19:38 53.94581 9.41858 18775 ft 399 kts 338°
2026-05-04 19:38 53.97185 9.40134 19500 ft 404 kts 338°
2026-05-04 19:38 53.99819 9.38397 20202 ft 408 kts 338°
2026-05-04 19:38 54.02480 9.36639 20881 ft 412 kts 338°
2026-05-04 19:39 54.05169 9.34861 21538 ft 416 kts 338°
2026-05-04 19:39 54.07877 9.33066 22171 ft 420 kts 338°
2026-05-04 19:39 54.10615 9.31250 22784 ft 424 kts 338°
2026-05-04 19:39 54.13373 9.29413 23368 ft 428 kts 338°
2026-05-04 19:40 54.16157 9.27553 23795 ft 431 kts 338°
2026-05-04 19:40 54.18947 9.25679 23920 ft 431 kts 338°
2026-05-04 19:40 54.21739 9.23803 23941 ft 431 kts 338°
2026-05-04 19:40 54.24531 9.21928 23943 ft 431 kts 338°
2026-05-04 19:41 54.27326 9.20046 23946 ft 431 kts 338°
2026-05-04 19:41 54.30082 9.18191 23948 ft 431 kts 338°
2026-05-04 19:41 54.32877 9.16309 24023 ft 434 kts 338°
2026-05-04 19:41 54.35703 9.14406 24616 ft 437 kts 338°
2026-05-04 19:42 54.38542 9.12493 25175 ft 440 kts 338°
2026-05-04 19:42 54.41402 9.10591 25697 ft 443 kts 338°
2026-05-04 19:42 54.44295 9.08691 26199 ft 446 kts 339°
2026-05-04 19:42 54.47258 9.07019 26656 ft 450 kts 348°
2026-05-04 19:43 54.50383 9.06565 26894 ft 452 kts
2026-05-04 19:43 54.53458 9.07623 26944 ft 452 kts 20°
2026-05-04 19:43 54.56223 9.10138 26946 ft 452 kts 37°
2026-05-04 19:43 54.58466 9.13825 26940 ft 451 kts 51°
2026-05-04 19:44 54.60443 9.18028 26940 ft 451 kts 51°
2026-05-04 19:44 54.62417 9.22238 26943 ft 451 kts 51°
2026-05-04 19:44 54.64393 9.26454 26944 ft 451 kts 51°
2026-05-04 19:44 54.66372 9.30669 26941 ft 451 kts 51°
2026-05-04 19:45 54.68349 9.34877 26943 ft 451 kts 51°
2026-05-04 19:45 54.70329 9.39093 26947 ft 451 kts 51°
2026-05-04 19:45 54.72308 9.43316 26943 ft 451 kts 51°
2026-05-04 19:45 54.74282 9.47543 26947 ft 451 kts 51°
2026-05-04 19:46 54.76254 9.51776 26944 ft 451 kts 51°
2026-05-04 19:46 54.78220 9.56011 26945 ft 451 kts 51°
2026-05-04 19:46 54.80184 9.60257 26944 ft 451 kts 52°
2026-05-04 19:46 54.82145 9.64507 26943 ft 451 kts 52°
2026-05-04 19:47 54.84109 9.68759 26943 ft 451 kts 51°
2026-05-04 19:47 54.86072 9.73009 26943 ft 451 kts 51°
2026-05-04 19:47 54.88008 9.77212 26939 ft 451 kts 52°
2026-05-04 19:47 54.89991 9.81534 26945 ft 451 kts 52°
2026-05-04 19:48 54.91921 9.85744 26943 ft 451 kts 52°
2026-05-04 19:48 54.93878 9.90016 26945 ft 451 kts 52°
2026-05-04 19:48 54.95833 9.94288 26808 ft 452 kts 52°
2026-05-04 19:48 54.97792 9.98575 25608 ft 454 kts 52°
2026-05-04 19:49 54.99769 10.02914 24110 ft 460 kts 52°
2026-05-04 19:49 55.01765 10.07302 22869 ft 461 kts 52°
2026-05-04 19:49 55.03739 10.11646 21935 ft 454 kts 52°
2026-05-04 19:49 55.05687 10.15936 21036 ft 448 kts 52°
2026-05-04 19:50 55.07602 10.20165 20150 ft 442 kts 52°
2026-05-04 19:50 55.09496 10.24350 19277 ft 437 kts 52°
2026-05-04 19:50 55.11368 10.28496 18422 ft 431 kts 52°
2026-05-04 19:50 55.13209 10.32588 17577 ft 426 kts 52°
2026-05-04 19:51 55.15026 10.36636 16741 ft 421 kts 52°
2026-05-04 19:51 55.16825 10.40649 15905 ft 416 kts 52°
2026-05-04 19:51 55.18599 10.44610 15096 ft 411 kts 52°
2026-05-04 19:51 55.20358 10.48538 14286 ft 407 kts 52°
2026-05-04 19:52 55.22090 10.52413 13480 ft 402 kts 52°
2026-05-04 19:52 55.23799 10.56249 12657 ft 397 kts 52°
2026-05-04 19:52 55.25450 10.60124 12127 ft 396 kts 59°
2026-05-04 19:52 55.26498 10.64493 11941 ft 394 kts 74°
2026-05-04 19:53 55.27261 10.69110 11936 ft 394 kts 75°
2026-05-04 19:53 55.28013 10.73740 11941 ft 395 kts 75°
2026-05-04 19:53 55.28764 10.78376 11945 ft 395 kts 75°
2026-05-04 19:53 55.29514 10.83012 11944 ft 395 kts 75°
2026-05-04 19:54 55.30262 10.87644 11944 ft 395 kts 75°
2026-05-04 19:54 55.31012 10.92292 11945 ft 395 kts 75°
2026-05-04 19:54 55.31760 10.96939 11945 ft 395 kts 75°
2026-05-04 19:54 55.32506 11.01580 11943 ft 395 kts 75°
2026-05-04 19:55 55.33252 11.06223 11943 ft 395 kts 75°
2026-05-04 19:55 55.33999 11.10877 11943 ft 395 kts 75°
2026-05-04 19:55 55.34743 11.15525 11944 ft 395 kts 75°
2026-05-04 19:55 55.35486 11.20164 11943 ft 395 kts 75°
2026-05-04 19:56 55.36229 11.24815 11943 ft 395 kts 75°
2026-05-04 19:56 55.36962 11.29405 11940 ft 395 kts 75°
2026-05-04 19:56 55.37704 11.34057 11944 ft 395 kts 75°
2026-05-04 19:56 55.38444 11.38706 11944 ft 395 kts 75°
2026-05-04 19:57 55.39183 11.43353 11943 ft 395 kts 75°
2026-05-04 19:57 55.39919 11.47982 11652 ft 389 kts 75°
2026-05-04 19:57 55.40643 11.52545 10791 ft 385 kts 75°
2026-05-04 19:57 55.41358 11.57049 10149 ft 376 kts 75°
2026-05-04 19:58 55.42039 11.61342 10022 ft 353 kts 75°
2026-05-04 19:58 55.42883 11.65246 9897 ft 333 kts 62°
2026-05-04 19:58 55.44004 11.68690 9771 ft 316 kts 60°
2026-05-04 19:58 55.45091 11.71945 9647 ft 301 kts 60°
2026-05-04 19:59 55.46133 11.75058 9457 ft 290 kts 60°
2026-05-04 19:59 55.47154 11.78107 9094 ft 286 kts 60°
2026-05-04 19:59 55.48162 11.81117 8688 ft 284 kts 60°
2026-05-04 19:59 55.49164 11.84112 8267 ft 283 kts 60°
2026-05-04 20:00 55.50159 11.87088 7976 ft 280 kts 60°
2026-05-04 20:00 55.51139 11.90017 7933 ft 282 kts 60°
2026-05-04 20:00 55.52136 11.93002 7942 ft 282 kts 60°
2026-05-04 20:00 55.53133 11.95989 7943 ft 282 kts 60°
2026-05-04 20:01 55.54128 11.98971 7943 ft 282 kts 60°
2026-05-04 20:01 55.55126 12.01963 7943 ft 282 kts 60°
2026-05-04 20:01 55.56098 12.04880 7941 ft 265 kts 60°
2026-05-04 20:01 55.57008 12.07605 7942 ft 252 kts 60°
2026-05-04 20:02 55.57891 12.10251 7946 ft 250 kts 60°
2026-05-04 20:02 55.58773 12.12895 7943 ft 249 kts 60°
2026-05-04 20:02 55.59637 12.15483 7943 ft 249 kts 60°
2026-05-04 20:02 55.60517 12.18126 7943 ft 249 kts 60°
2026-05-04 20:03 55.61398 12.20769 7943 ft 249 kts 60°
2026-05-04 20:03 55.62281 12.23420 7943 ft 249 kts 60°
2026-05-04 20:03 55.63158 12.26057 7917 ft 248 kts 60°
2026-05-04 20:03 55.64031 12.28680 7587 ft 247 kts 60°
2026-05-04 20:04 55.64888 12.31258 7244 ft 246 kts 60°
2026-05-04 20:04 55.65753 12.33863 6923 ft 245 kts 60°
2026-05-04 20:04 55.66615 12.36457 6588 ft 244 kts 60°
2026-05-04 20:04 55.67472 12.39040 6256 ft 243 kts 60°
2026-05-04 20:05 55.68326 12.41612 5926 ft 241 kts 60°
2026-05-04 20:05 55.69185 12.44203 5598 ft 240 kts 60°
2026-05-04 20:05 55.70019 12.46717 5274 ft 239 kts 60°
2026-05-04 20:05 55.70860 12.49255 4944 ft 238 kts 60°
2026-05-04 20:06 55.71697 12.51779 4613 ft 237 kts 59°
2026-05-04 20:06 55.72613 12.54216 4285 ft 236 kts 56°
2026-05-04 20:06 55.73555 12.56588 4003 ft 235 kts 55°
2026-05-04 20:06 55.74499 12.58954 3974 ft 235 kts 55°
2026-05-04 20:07 55.75447 12.61328 3976 ft 235 kts 55°
2026-05-04 20:07 55.76394 12.63702 3977 ft 235 kts 55°
2026-05-04 20:07 55.77339 12.66072 3977 ft 236 kts 55°
2026-05-04 20:07 55.78287 12.68452 3977 ft 236 kts 55°
2026-05-04 20:08 55.79235 12.70833 3977 ft 236 kts 55°
2026-05-04 20:08 55.80168 12.73177 3977 ft 236 kts 55°
2026-05-04 20:08 55.81103 12.75527 3977 ft 236 kts 55°
2026-05-04 20:08 55.82050 12.77907 3977 ft 236 kts 55°
2026-05-04 20:09 55.83008 12.80317 3977 ft 236 kts 55°
2026-05-04 20:09 55.83902 12.82569 3977 ft 236 kts 55°
2026-05-04 20:09 55.84849 12.84954 3977 ft 236 kts 55°
2026-05-04 20:09 55.85795 12.87340 3975 ft 236 kts 55°
2026-05-04 20:10 55.86741 12.89724 3977 ft 236 kts 55°
2026-05-04 20:10 55.87689 12.92116 3977 ft 236 kts 55°
2026-05-04 20:10 55.88634 12.94504 3977 ft 236 kts 55°
2026-05-04 20:10 55.89519 12.96946 3971 ft 235 kts 68°
2026-05-04 20:11 55.89734 12.99774 3977 ft 232 kts 101°
2026-05-04 20:11 55.89054 13.02322 3979 ft 229 kts 135°
2026-05-04 20:11 55.88202 13.03398 3976 ft 227 kts 158°
2026-05-04 20:11 55.86658 13.03691 3980 ft 226 kts 193°
2026-05-04 20:12 55.85306 13.02423 3981 ft 226 kts 219°
2026-05-04 20:12 55.84128 13.00552 3978 ft 227 kts 222°
2026-05-04 20:12 55.82601 12.98093 3976 ft 215 kts 221°
2026-05-04 20:12 55.81862 12.96927 3974 ft 205 kts 221°
2026-05-04 20:13 55.80828 12.95302 3973 ft 192 kts 221°
2026-05-04 20:13 55.79847 12.93762 3973 ft 187 kts 221°
2026-05-04 20:13 55.78891 12.92262 3989 ft 185 kts 221°
2026-05-04 20:13 55.77962 12.90805 3918 ft 172 kts 221°
2026-05-04 20:14 55.77098 12.89451 3750 ft 157 kts 221°
2026-05-04 20:14 55.76321 12.88234 3569 ft 144 kts 220°
2026-05-04 20:14 55.75577 12.87070 3386 ft 142 kts 220°
2026-05-04 20:14 55.74839 12.85915 3197 ft 141 kts 220°
2026-05-04 20:15 55.74105 12.84768 3012 ft 141 kts 220°
2026-05-04 20:15 55.73373 12.83623 2826 ft 140 kts 220°
2026-05-04 20:15 55.72642 12.82481 2639 ft 140 kts 220°
2026-05-04 20:15 55.71913 12.81344 2454 ft 139 kts 220°
2026-05-04 20:16 55.71195 12.80223 2272 ft 139 kts 220°
2026-05-04 20:16 55.70471 12.79094 2087 ft 139 kts 220°
2026-05-04 20:16 55.69748 12.77967 1897 ft 138 kts 220°
2026-05-04 20:16 55.69026 12.76842 1720 ft 138 kts 220°
2026-05-04 20:17 55.68307 12.75722 1532 ft 137 kts 220°
2026-05-04 20:17 55.67589 12.74605 1354 ft 137 kts 220°
2026-05-04 20:17 55.66874 12.73493 1169 ft 137 kts 220°
2026-05-04 20:17 55.66161 12.72384 992 ft 136 kts 220°
2026-05-04 20:18 55.65449 12.71278 810 ft 136 kts 220°
2026-05-04 20:18 55.64736 12.70170 630 ft 136 kts 220°
2026-05-04 20:18 55.64027 12.69068 449 ft 136 kts 220°
2026-05-04 20:18 55.63316 12.67964 273 ft 136 kts 221°
2026-05-04 20:19 55.62606 12.66863 92 ft 136 kts 221°
2026-05-04 20:19 55.62010 12.65938 26 ft 60 kts 221°
2026-05-04 20:19 55.61729 12.65496 26 ft 48 kts 219°
2026-05-04 20:19 55.61608 12.65141 24 ft 23 kts 272°
2026-05-04 20:20 55.61645 12.64962 26 ft 10 kts 308°
2026-05-04 20:20 55.61658 12.64933 24 ft 0 kts 309°
2026-05-04 20:21 55.61660 12.64928 24 ft 4 kts 309°
2026-05-04 20:21 55.61718 12.64832 26 ft 19 kts 326°
2026-05-04 20:21 55.61977 12.64909 24 ft 16 kts 33°
2026-05-04 20:22 55.62061 12.65007 28 ft 14 kts 33°
2026-05-04 20:22 55.62136 12.65093 25 ft 5 kts 31°
2026-05-04 20:22 55.62136 12.65094 25 ft 0 kts 31°
2026-05-04 20:22 55.62137 12.65094 25 ft 0 kts 31°
2026-05-04 20:25 55.62157 12.65117 26 ft 11 kts 32°
2026-05-04 20:25 55.62231 12.65164 24 ft 11 kts 341°
2026-05-04 20:26 55.62280 12.65068 24 ft 9 kts 306°
2026-05-04 20:26 55.62303 12.65009 25 ft 6 kts 301°
2026-05-04 20:26 55.62349 12.64881 26 ft 15 kts 302°
2026-05-04 20:26 55.62412 12.64713 25 ft 15 kts 303°
2026-05-04 20:27 55.62465 12.64573 24 ft 12 kts 303°
2026-05-04 20:27 55.62475 12.64545 24 ft 0 kts 303°
2026-05-04 20:27 55.62480 12.64531 27 ft 8 kts 304°
2026-05-04 20:27 55.62538 12.64368 26 ft 15 kts 303°
2026-05-04 20:28 55.62562 12.64303 25 ft 0 kts 303°
2026-05-04 20:28 55.62582 12.64269 26 ft 6 kts 325°
2026-05-04 20:28 55.62620 12.64276 24 ft 6 kts 21°
2026-05-04 20:28 55.62660 12.64306 26 ft 7 kts 22°
2026-05-04 20:29 55.62692 12.64330 24 ft 0 kts 21°
2026-05-04 20:29 55.62693 12.64330 24 ft 1 kts 21°
2026-05-04 20:29 55.62715 12.64355 25 ft 7 kts 47°
2026-05-04 20:29 55.62716 12.64430 24 ft 6 kts 99°
2026-05-04 20:30 55.62714 12.64451 24 ft 0 kts 100°